When you browse on this site, cookies collect data to enhance your experience and personalize the content and advertising you see.
Visit our Privacy Policy to learn more. By continuing to use the site, you agree to this use of cookies and data.

Hourly Weather Tucupita

Today, 7 July, Tuesday

Time Temperature Precipitation Wind Pressure Humidity
00:00 +26°C° 0.5 mm 1 mps 758 mmHg 98%
01:00 +25°C° 0.5 mm 1 mps 758 mmHg 98%
02:00 +25°C° 0.5 mm 1 mps 757 mmHg 99%
03:00 +25°C° 0 mm 1 mps 757 mmHg 99%
04:00 +25°C° 0 mm 1 mps 757 mmHg 99%
05:00 +23°C° 0 mm 0 mps 757 mmHg 99%
06:00 +25°C° 0 mm 1 mps 757 mmHg 96%
07:00 +26°C° 0 mm 1 mps 758 mmHg 94%
08:00 +27°C° 0 mm 1 mps 758 mmHg 92%
09:00 +29°C° 0 mm 1 mps 758 mmHg 82%
10:00 +31°C° 0 mm 2 mps 758 mmHg 71%
11:00 +34°C° 0 mm 2 mps 758 mmHg 61%
12:00 +34°C° 0.1 mm 2 mps 758 mmHg 60%
13:00 +34°C° 0.1 mm 2 mps 757 mmHg 60%
14:00 +35°C° 0.1 mm 2 mps 757 mmHg 60%
15:00 +32°C° 1 mm 2 mps 757 mmHg 68%
16:00 +31°C° 1 mm 2 mps 756 mmHg 76%
17:00 +30°C° 1 mm 2 mps 756 mmHg 84%
18:00 +29°C° 0.8 mm 2 mps 757 mmHg 88%
19:00 +27°C° 0.8 mm 1 mps 757 mmHg 92%
20:00 +26°C° 0.8 mm 1 mps 758 mmHg 95%
21:00 +26°C° 0.1 mm 1 mps 758 mmHg 96%
22:00 +26°C° 0.1 mm 1 mps 758 mmHg 97%
23:00 +26°C° 0.1 mm 1 mps 759 mmHg 98%

Tomorrow, 8 July, Wednesday

Time Temperature Precipitation Wind Pressure Humidity
00:00 +25°C° 0 mm 1 mps 758 mmHg 98%
01:00 +25°C° 0 mm 1 mps 758 mmHg 98%
02:00 +25°C° 0 mm 1 mps 758 mmHg 99%
03:00 +25°C° 0 mm 1 mps 758 mmHg 99%
04:00 +23°C° 0 mm 0 mps 758 mmHg 99%
05:00 +23°C° 0 mm 0 mps 758 mmHg 99%
06:00 +24°C° 0.1 mm 0 mps 758 mmHg 96%
07:00 +27°C° 0.1 mm 1 mps 758 mmHg 93%
08:00 +28°C° 0.1 mm 1 mps 759 mmHg 91%
09:00 +29°C° 0.2 mm 1 mps 759 mmHg 82%
10:00 +31°C° 0.2 mm 1 mps 759 mmHg 72%
11:00 +34°C° 0.2 mm 2 mps 759 mmHg 63%
12:00 +34°C° 0.9 mm 2 mps 758 mmHg 65%
13:00 +32°C° 0.9 mm 2 mps 758 mmHg 67%
14:00 +32°C° 0.9 mm 2 mps 757 mmHg 69%
15:00 +31°C° 0.6 mm 2 mps 757 mmHg 74%
16:00 +30°C° 0.6 mm 2 mps 756 mmHg 79%
17:00 +29°C° 0.6 mm 2 mps 756 mmHg 84%
18:00 +28°C° 0.4 mm 2 mps 757 mmHg 89%
19:00 +27°C° 0.4 mm 2 mps 757 mmHg 93%
20:00 +26°C° 0.4 mm 1 mps 757 mmHg 97%
21:00 +26°C° 0 mm 1 mps 758 mmHg 97%
22:00 +25°C° 0 mm 1 mps 758 mmHg 98%
23:00 +25°C° 0 mm 1 mps 758 mmHg 98%

Day after tomorrow, 9 July, Thursday

Time Temperature Precipitation Wind Pressure Humidity
00:00 +25°C° 0 mm 1 mps 758 mmHg 98%
01:00 +24°C° 0 mm 1 mps 758 mmHg 98%
02:00 +24°C° 0 mm 1 mps 757 mmHg 98%
03:00 +24°C° 0 mm 1 mps 757 mmHg 98%
04:00 +22°C° 0 mm 0 mps 757 mmHg 98%
05:00 +22°C° 0 mm 0 mps 757 mmHg 98%
06:00 +23°C° 0 mm 0 mps 758 mmHg 95%
07:00 +26°C° 0 mm 1 mps 758 mmHg 92%
08:00 +27°C° 0 mm 1 mps 758 mmHg 90%
09:00 +28°C° 0.3 mm 1 mps 758 mmHg 84%
10:00 +30°C° 0.3 mm 2 mps 759 mmHg 78%
11:00 +31°C° 0.3 mm 2 mps 759 mmHg 72%
12:00 +31°C° 1.2 mm 2 mps 758 mmHg 75%
13:00 +30°C° 1.2 mm 2 mps 757 mmHg 77%
14:00 +30°C° 1.2 mm 2 mps 757 mmHg 80%
15:00 +30°C° 0.7 mm 2 mps 757 mmHg 82%
16:00 +29°C° 0.7 mm 2 mps 756 mmHg 83%
17:00 +29°C° 0.7 mm 2 mps 756 mmHg 85%
18:00 +28°C° 0.1 mm 2 mps 757 mmHg 89%
19:00 +27°C° 0.1 mm 1 mps 757 mmHg 92%
20:00 +26°C° 0.1 mm 1 mps 758 mmHg 96%
21:00 +25°C° 0.1 mm 1 mps 758 mmHg 97%
22:00 +25°C° 0.1 mm 1 mps 758 mmHg 97%
23:00 +25°C° 0.1 mm 1 mps 759 mmHg 98%

10 July, Friday

Time Temperature Precipitation Wind Pressure Humidity
00:00 +25°C° 0 mm 1 mps 758 mmHg 98%
01:00 +25°C° 0 mm 1 mps 758 mmHg 98%
02:00 +24°C° 0 mm 1 mps 758 mmHg 99%
03:00 +24°C° 0 mm 1 mps 758 mmHg 99%
04:00 +22°C° 0 mm 0 mps 758 mmHg 98%
05:00 +22°C° 0 mm 0 mps 758 mmHg 98%
06:00 +25°C° 0 mm 1 mps 758 mmHg 96%
07:00 +26°C° 0 mm 1 mps 759 mmHg 93%
08:00 +27°C° 0 mm 1 mps 759 mmHg 90%
09:00 +28°C° 1.2 mm 1 mps 759 mmHg 88%
10:00 +29°C° 1.2 mm 2 mps 759 mmHg 85%
11:00 +30°C° 1.2 mm 2 mps 759 mmHg 82%
12:00 +30°C° 1.7 mm 2 mps 758 mmHg 84%
13:00 +30°C° 1.7 mm 2 mps 758 mmHg 85%
14:00 +29°C° 1.7 mm 2 mps 757 mmHg 87%
15:00 +29°C° 0.9 mm 2 mps 757 mmHg 87%
16:00 +29°C° 0.9 mm 2 mps 757 mmHg 86%
17:00 +29°C° 0.9 mm 2 mps 756 mmHg 86%
18:00 +28°C° 0.1 mm 2 mps 757 mmHg 89%
19:00 +27°C° 0.1 mm 1 mps 757 mmHg 92%
20:00 +26°C° 0.1 mm 1 mps 758 mmHg 94%
21:00 +26°C° 0 mm 1 mps 758 mmHg 95%
22:00 +26°C° 0 mm 1 mps 759 mmHg 95%
23:00 +26°C° 0 mm 1 mps 759 mmHg 95%

11 July, Saturday

Time Temperature Precipitation Wind Pressure Humidity
00:00 +26°C° 0 mm 1 mps 758 mmHg 96%
01:00 +25°C° 0 mm 1 mps 758 mmHg 97%
02:00 +25°C° 0 mm 1 mps 757 mmHg 98%
03:00 +25°C° 0 mm 1 mps 757 mmHg 98%
04:00 +25°C° 0 mm 1 mps 757 mmHg 98%
05:00 +25°C° 0 mm 1 mps 757 mmHg 99%
06:00 +26°C° 0 mm 1 mps 758 mmHg 95%
07:00 +27°C° 0 mm 1 mps 758 mmHg 91%
08:00 +28°C° 0 mm 1 mps 758 mmHg 87%
09:00 +29°C° 0.2 mm 2 mps 758 mmHg 80%
10:00 +31°C° 0.2 mm 2 mps 758 mmHg 72%
11:00 +32°C° 0.2 mm 2 mps 758 mmHg 65%
12:00 +32°C° 0.5 mm 2 mps 758 mmHg 68%
13:00 +31°C° 0.5 mm 2 mps 757 mmHg 70%
14:00 +31°C° 0.5 mm 2 mps 757 mmHg 73%
15:00 +30°C° 0.2 mm 2 mps 757 mmHg 76%
16:00 +29°C° 0.2 mm 2 mps 756 mmHg 78%
17:00 +29°C° 0.2 mm 2 mps 756 mmHg 81%
18:00 +28°C° 0.2 mm 2 mps 757 mmHg 84%
19:00 +27°C° 0.2 mm 2 mps 757 mmHg 87%
20:00 +26°C° 0.2 mm 2 mps 758 mmHg 90%
21:00 +26°C° 0.1 mm 1 mps 758 mmHg 92%
22:00 +26°C° 0.1 mm 1 mps 758 mmHg 93%
23:00 +25°C° 0.1 mm 1 mps 759 mmHg 95%

12 July, Sunday

Time Temperature Precipitation Wind Pressure Humidity
00:00 +25°C° 0.1 mm 1 mps 758 mmHg 96%
01:00 +25°C° 0.1 mm 1 mps 758 mmHg 97%
02:00 +25°C° 0.1 mm 1 mps 758 mmHg 98%
03:00 +23°C° 0.2 mm 0 mps 758 mmHg 98%
04:00 +23°C° 0.2 mm 0 mps 758 mmHg 98%
05:00 +22°C° 0.2 mm 0 mps 758 mmHg 99%
06:00 +23°C° 0.1 mm 0 mps 758 mmHg 97%
07:00 +26°C° 0.1 mm 1 mps 759 mmHg 95%
08:00 +27°C° 0.1 mm 1 mps 759 mmHg 93%
09:00 +28°C° 0.6 mm 1 mps 759 mmHg 87%
10:00 +29°C° 0.6 mm 2 mps 759 mmHg 82%
11:00 +31°C° 0.6 mm 2 mps 759 mmHg 76%
12:00 +31°C° 0.7 mm 2 mps 758 mmHg 77%
13:00 +31°C° 0.7 mm 2 mps 758 mmHg 77%
14:00 +31°C° 0.7 mm 2 mps 757 mmHg 77%
15:00 +30°C° 0.3 mm 2 mps 757 mmHg 78%
16:00 +30°C° 0.3 mm 2 mps 757 mmHg 80%
17:00 +30°C° 0.3 mm 2 mps 757 mmHg 81%
18:00 +28°C° 0.3 mm 2 mps 757 mmHg 86%
19:00 +27°C° 0.3 mm 2 mps 758 mmHg 92%
20:00 +26°C° 0.3 mm 1 mps 758 mmHg 97%
21:00 +25°C° 0.2 mm 1 mps 759 mmHg 98%
22:00 +25°C° 0.2 mm 1 mps 759 mmHg 98%
23:00 +25°C° 0.2 mm 1 mps 760 mmHg 98%
Show more